UAL32A KORD-KLGA

Flight info

Callsign UAL32A
Flight time 1h 29m
Altitude 39000
Route MOBLE ADIME GERBS Q186 WEVEL ETG MIP4
Aircraft B738/M-SDE2E3FGHIRWXY/LB1

Departure

Time 2026-05-05 18:32
Airport Chicago O'Hare International Airport (KORD)

Arrival

Time 2026-05-05 20:02
Airport LaGuardia Airport (KLGA)
Time Latitude Longitude Altitude Speed Heading
2026-05-05 17:55 41.97931 -87.90728 667 ft 0 kts 99°
2026-05-05 18:01 41.97931 -87.90727 659 ft 0 kts 99°
2026-05-05 18:17 41.97936 -87.90757 666 ft 4 kts 114°
2026-05-05 18:17 41.97951 -87.90786 667 ft 4 kts 144°
2026-05-05 18:17 41.97974 -87.90798 666 ft 3 kts 186°
2026-05-05 18:17 41.97978 -87.90797 666 ft 0 kts 190°
2026-05-05 18:22 41.97968 -87.90799 668 ft 4 kts 189°
2026-05-05 18:23 41.97909 -87.90813 668 ft 13 kts 189°
2026-05-05 18:23 41.97807 -87.90836 668 ft 16 kts 189°
2026-05-05 18:23 41.97702 -87.90863 668 ft 15 kts 191°
2026-05-05 18:23 41.97616 -87.90918 667 ft 14 kts 238°
2026-05-05 18:24 41.97579 -87.91039 668 ft 14 kts 250°
2026-05-05 18:24 41.97568 -87.91079 668 ft 0 kts 247°
2026-05-05 18:25 41.97550 -87.91122 668 ft 9 kts 235°
2026-05-05 18:25 41.97496 -87.91183 666 ft 8 kts 175°
2026-05-05 18:26 41.97450 -87.91137 668 ft 9 kts 140°
2026-05-05 18:26 41.97394 -87.91073 668 ft 13 kts 139°
2026-05-05 18:26 41.97311 -87.90976 668 ft 17 kts 137°
2026-05-05 18:26 41.97224 -87.90859 668 ft 18 kts 132°
2026-05-05 18:27 41.97229 -87.90710 668 ft 17 kts 96°
2026-05-05 18:27 41.97212 -87.90535 668 ft 23 kts 96°
2026-05-05 18:27 41.97205 -87.90310 668 ft 23 kts 89°
2026-05-05 18:27 41.97206 -87.90096 668 ft 23 kts 91°
2026-05-05 18:28 41.97280 -87.89712 667 ft 21 kts 60°
2026-05-05 18:28 41.97261 -87.89574 668 ft 17 kts 144°
2026-05-05 18:28 41.97195 -87.89459 668 ft 16 kts 97°
2026-05-05 18:29 41.97196 -87.89315 668 ft 15 kts 90°
2026-05-05 18:29 41.97194 -87.89151 668 ft 21 kts 90°
2026-05-05 18:29 41.97195 -87.88946 668 ft 22 kts 90°
2026-05-05 18:29 41.97195 -87.88745 668 ft 22 kts 90°
2026-05-05 18:30 41.97195 -87.88518 668 ft 26 kts 90°
2026-05-05 18:30 41.97196 -87.88284 668 ft 24 kts 90°
2026-05-05 18:30 41.97195 -87.88080 668 ft 15 kts 99°
2026-05-05 18:30 41.97106 -87.88035 669 ft 15 kts 180°
2026-05-05 18:31 41.97008 -87.88028 670 ft 14 kts 168°
2026-05-05 18:31 41.96923 -87.88056 669 ft 13 kts 227°
2026-05-05 18:31 41.96811 -87.88192 667 ft 46 kts 221°
2026-05-05 18:31 41.96393 -87.88686 668 ft 111 kts 222°
2026-05-05 18:32 41.95683 -87.89512 736 ft 155 kts 224°
2026-05-05 18:32 41.94851 -87.90473 1355 ft 161 kts 219°
2026-05-05 18:32 41.93768 -87.90936 2098 ft 171 kts 181°
2026-05-05 18:32 41.92565 -87.90437 2427 ft 202 kts 148°
2026-05-05 18:33 41.91516 -87.89066 2834 ft 216 kts 135°
2026-05-05 18:33 41.90413 -87.87534 3054 ft 238 kts 135°
2026-05-05 18:33 41.89209 -87.85893 3405 ft 250 kts 135°
2026-05-05 18:33 41.87966 -87.84227 3965 ft 253 kts 136°
2026-05-05 18:34 41.86777 -87.82398 4275 ft 274 kts 117°
2026-05-05 18:34 41.86412 -87.79920 5013 ft 276 kts 84°
2026-05-05 18:34 41.86730 -87.77333 5637 ft 284 kts 77°
2026-05-05 18:34 41.87136 -87.74723 6276 ft 294 kts 76°
2026-05-05 18:35 41.87546 -87.71995 6914 ft 301 kts 78°
2026-05-05 18:35 41.87934 -87.69191 7554 ft 310 kts 80°
2026-05-05 18:35 41.88302 -87.66295 8223 ft 317 kts 81°
2026-05-05 18:35 41.88653 -87.63349 8952 ft 323 kts 82°
2026-05-05 18:36 41.88994 -87.60349 9696 ft 329 kts 83°
2026-05-05 18:36 41.89327 -87.57318 10332 ft 337 kts 83°
2026-05-05 18:36 41.89674 -87.54080 10557 ft 361 kts 83°
2026-05-05 18:36 41.90038 -87.50635 10907 ft 379 kts 83°
2026-05-05 18:37 41.90411 -87.47094 11571 ft 385 kts 83°
2026-05-05 18:37 41.90781 -87.43558 12351 ft 388 kts 83°
2026-05-05 18:37 41.91158 -87.39942 13143 ft 392 kts 82°
2026-05-05 18:37 41.91537 -87.36288 13908 ft 397 kts 82°
2026-05-05 18:38 41.91919 -87.32594 14591 ft 402 kts 83°
2026-05-05 18:38 41.92299 -87.28907 15345 ft 405 kts 83°
2026-05-05 18:38 41.92685 -87.25145 16080 ft 409 kts 83°
2026-05-05 18:38 41.93074 -87.21337 16783 ft 414 kts 83°
2026-05-05 18:39 41.93469 -87.17463 17495 ft 419 kts 83°
2026-05-05 18:39 41.93863 -87.13596 18186 ft 424 kts 83°
2026-05-05 18:39 41.94263 -87.09646 18781 ft 429 kts 83°
2026-05-05 18:39 41.94646 -87.05619 19363 ft 434 kts 86°
2026-05-05 18:40 41.94814 -87.01534 19933 ft 438 kts 90°
2026-05-05 18:40 41.94867 -86.97460 20467 ft 445 kts 91°
2026-05-05 18:40 41.94885 -86.93262 20974 ft 451 kts 92°
2026-05-05 18:40 41.94901 -86.89015 21630 ft 453 kts 92°
2026-05-05 18:41 41.94929 -86.84761 22243 ft 456 kts 92°
2026-05-05 18:41 41.94969 -86.80526 22786 ft 461 kts 92°
2026-05-05 18:41 41.95018 -86.76191 23324 ft 465 kts 91°
2026-05-05 18:41 41.95072 -86.71813 23791 ft 470 kts 91°
2026-05-05 18:42 41.95127 -86.67442 24198 ft 474 kts 91°
2026-05-05 18:42 41.95182 -86.62988 24609 ft 479 kts 91°
2026-05-05 18:42 41.95236 -86.58469 25019 ft 484 kts 91°
2026-05-05 18:42 41.95287 -86.53923 25375 ft 490 kts 91°
2026-05-05 18:43 41.95336 -86.49362 25712 ft 496 kts 91°
2026-05-05 18:43 41.95385 -86.44695 26129 ft 499 kts 91°
2026-05-05 18:43 41.95432 -86.40016 26559 ft 502 kts 91°
2026-05-05 18:43 41.95478 -86.35287 26972 ft 506 kts 91°
2026-05-05 18:44 41.95521 -86.30577 27347 ft 510 kts 91°
2026-05-05 18:44 41.95564 -86.25783 27724 ft 514 kts 91°
2026-05-05 18:44 41.95577 -86.20953 28097 ft 517 kts 94°
2026-05-05 18:44 41.95307 -86.16185 28459 ft 518 kts 100°
2026-05-05 18:45 41.94869 -86.11371 28862 ft 520 kts 101°
2026-05-05 18:45 41.94369 -86.06541 29237 ft 522 kts 102°
2026-05-05 18:45 41.93854 -86.01683 29586 ft 526 kts 102°
2026-05-05 18:45 41.93346 -85.96781 29915 ft 529 kts 102°
2026-05-05 18:46 41.92859 -85.91919 30196 ft 532 kts 101°
2026-05-05 18:46 41.92379 -85.86969 30504 ft 535 kts 101°
2026-05-05 18:46 41.91906 -85.82001 30796 ft 537 kts 101°
2026-05-05 18:46 41.91434 -85.77001 31073 ft 540 kts 101°
2026-05-05 18:47 41.90961 -85.72012 31344 ft 542 kts 101°
2026-05-05 18:47 41.90479 -85.66955 31659 ft 542 kts 100°
2026-05-05 18:47 41.90006 -85.62015 32198 ft 537 kts 100°
2026-05-05 18:47 41.89525 -85.57024 32599 ft 537 kts 100°
2026-05-05 18:48 41.89040 -85.52049 32886 ft 538 kts 100°
2026-05-05 18:48 41.88549 -85.47036 33178 ft 540 kts 100°
2026-05-05 18:48 41.88062 -85.42098 33516 ft 539 kts 100°
2026-05-05 18:48 41.87571 -85.37120 34057 ft 534 kts 99°
2026-05-05 18:49 41.87082 -85.32195 34409 ft 533 kts 99°
2026-05-05 18:49 41.86588 -85.27241 34555 ft 536 kts 99°
2026-05-05 18:49 41.86095 -85.22321 34705 ft 540 kts 99°
2026-05-05 18:49 41.85590 -85.17305 34962 ft 540 kts 99°
2026-05-05 18:50 41.85085 -85.12309 35262 ft 540 kts 99°
2026-05-05 18:50 41.84582 -85.07351 35527 ft 540 kts 99°
2026-05-05 18:50 41.84072 -85.02348 35759 ft 541 kts 99°
2026-05-05 18:50 41.83561 -84.97346 36099 ft 540 kts 99°
2026-05-05 18:51 41.83048 -84.92357 36353 ft 540 kts 98°
2026-05-05 18:51 41.82529 -84.87328 36522 ft 542 kts 98°
2026-05-05 18:51 41.82013 -84.82359 36710 ft 544 kts 98°
2026-05-05 18:51 41.81485 -84.77293 36959 ft 544 kts 98°
2026-05-05 18:52 41.80966 -84.72324 37199 ft 545 kts 98°
2026-05-05 18:52 41.80435 -84.67270 37421 ft 546 kts 98°
2026-05-05 18:52 41.79901 -84.62211 37756 ft 543 kts 98°
2026-05-05 18:52 41.79376 -84.57256 38112 ft 541 kts 98°
2026-05-05 18:53 41.78845 -84.52263 38419 ft 540 kts 98°
2026-05-05 18:53 41.78312 -84.47270 38617 ft 540 kts 98°
2026-05-05 18:53 41.77806 -84.42324 38784 ft 541 kts 95°
2026-05-05 18:53 41.77582 -84.37284 38864 ft 542 kts 89°
2026-05-05 18:54 41.77581 -84.27209 38861 ft 542 kts 87°
2026-05-05 18:54 41.77641 -84.17157 38860 ft 535 kts 88°
2026-05-05 18:55 41.77608 -84.07181 38894 ft 534 kts 89°
2026-05-05 18:55 41.77526 -83.97277 38870 ft 533 kts 89°
2026-05-05 18:56 41.77434 -83.87372 38867 ft 532 kts 89°
2026-05-05 18:56 41.77339 -83.77435 38878 ft 532 kts 89°
2026-05-05 18:57 41.77238 -83.67528 38879 ft 532 kts 89°
2026-05-05 18:57 41.77130 -83.57669 38868 ft 532 kts 89°
2026-05-05 18:58 41.76580 -83.47754 38876 ft 533 kts 97°
2026-05-05 18:58 41.75542 -83.37940 38829 ft 534 kts 98°
2026-05-05 18:59 41.74491 -83.28043 38831 ft 534 kts 97°
2026-05-05 18:59 41.73514 -83.18219 38831 ft 535 kts 97°
2026-05-05 19:00 41.72549 -83.08331 38851 ft 534 kts 97°
2026-05-05 19:00 41.71578 -82.98528 38839 ft 534 kts 97°
2026-05-05 19:01 41.70586 -82.88638 38834 ft 533 kts 97°
2026-05-05 19:01 41.69595 -82.78849 38836 ft 533 kts 97°
2026-05-05 19:02 41.68589 -82.69009 38848 ft 532 kts 97°
2026-05-05 19:02 41.67580 -82.59243 38845 ft 532 kts 97°
2026-05-05 19:03 41.66547 -82.49409 38846 ft 531 kts 98°
2026-05-05 19:03 41.65511 -82.39655 38852 ft 531 kts 98°
2026-05-05 19:04 41.64467 -82.29896 38841 ft 531 kts 97°
2026-05-05 19:04 41.63417 -82.20152 38845 ft 530 kts 98°
2026-05-05 19:05 41.62357 -82.10379 38841 ft 531 kts 98°
2026-05-05 19:05 41.61292 -82.00654 38843 ft 531 kts 98°
2026-05-05 19:06 41.60212 -81.90868 38844 ft 531 kts 98°
2026-05-05 19:06 41.59129 -81.81133 38843 ft 532 kts 98°
2026-05-05 19:07 41.58217 -81.72988 38842 ft 532 kts 98°
2026-05-05 19:07 41.57113 -81.63206 38836 ft 532 kts 98°
2026-05-05 19:08 41.56006 -81.53463 38874 ft 533 kts 98°
2026-05-05 19:08 41.54882 -81.43651 38858 ft 533 kts 98°
2026-05-05 19:09 41.53844 -81.33859 38861 ft 533 kts 96°
2026-05-05 19:09 41.52984 -81.24071 38863 ft 533 kts 95°
2026-05-05 19:10 41.52124 -81.14263 38832 ft 533 kts 96°
2026-05-05 19:10 41.51223 -81.04452 38815 ft 533 kts 96°
2026-05-05 19:11 41.50295 -80.94609 38815 ft 532 kts 96°
2026-05-05 19:11 41.49366 -80.84853 38813 ft 530 kts 96°
2026-05-05 19:12 41.48433 -80.75127 38821 ft 529 kts 96°
2026-05-05 19:12 41.47490 -80.65371 38835 ft 528 kts 96°
2026-05-05 19:13 41.46547 -80.55702 38808 ft 527 kts 96°
2026-05-05 19:13 41.45592 -80.45998 38825 ft 525 kts 96°
2026-05-05 19:14 41.44638 -80.36384 38831 ft 524 kts 96°
2026-05-05 19:14 41.43675 -80.26765 38835 ft 523 kts 96°
2026-05-05 19:15 41.42710 -80.17196 38837 ft 523 kts 96°
2026-05-05 19:15 41.41737 -80.07575 38847 ft 522 kts 96°
2026-05-05 19:16 41.40815 -79.98009 38849 ft 521 kts 96°
2026-05-05 19:16 41.39895 -79.88405 38852 ft 522 kts 96°
2026-05-05 19:17 41.38964 -79.78830 38846 ft 522 kts 96°
2026-05-05 19:17 41.38021 -79.69273 38848 ft 522 kts 96°
2026-05-05 19:18 41.37064 -79.59665 38825 ft 522 kts 96°
2026-05-05 19:18 41.36106 -79.50130 38825 ft 521 kts 96°
2026-05-05 19:19 41.35140 -79.40591 38821 ft 522 kts 96°
2026-05-05 19:19 41.34166 -79.31045 38821 ft 521 kts 96°
2026-05-05 19:20 41.33180 -79.21477 38820 ft 520 kts 97°
2026-05-05 19:20 41.32191 -79.11946 38827 ft 519 kts 97°
2026-05-05 19:21 41.31200 -79.02484 38834 ft 517 kts 97°
2026-05-05 19:21 41.30202 -78.93009 38829 ft 516 kts 97°
2026-05-05 19:22 41.29200 -78.83606 38843 ft 515 kts 97°
2026-05-05 19:22 41.28162 -78.74167 38823 ft 514 kts 97°
2026-05-05 19:23 41.27124 -78.64814 38817 ft 513 kts 97°
2026-05-05 19:23 41.26077 -78.55411 38809 ft 512 kts 97°
2026-05-05 19:24 41.25034 -78.46100 38817 ft 510 kts 97°
2026-05-05 19:24 41.23995 -78.36801 38839 ft 510 kts 97°
2026-05-05 19:25 41.22969 -78.27459 38834 ft 510 kts 97°
2026-05-05 19:25 41.21935 -78.18158 38828 ft 510 kts 97°
2026-05-05 19:26 41.20861 -78.08865 38820 ft 511 kts 98°
2026-05-05 19:26 41.19694 -77.99519 38806 ft 511 kts 99°
2026-05-05 19:27 41.18519 -77.90248 38811 ft 511 kts 99°
2026-05-05 19:27 41.17344 -77.80934 38795 ft 511 kts 99°
2026-05-05 19:28 41.16171 -77.71663 38808 ft 510 kts 99°
2026-05-05 19:28 41.14987 -77.62348 38798 ft 510 kts 99°
2026-05-05 19:29 41.13807 -77.53124 38793 ft 509 kts 99°
2026-05-05 19:29 41.12616 -77.43882 38789 ft 507 kts 99°
2026-05-05 19:30 41.11416 -77.34641 38790 ft 506 kts 99°
2026-05-05 19:30 41.10223 -77.25506 38788 ft 504 kts 99°
2026-05-05 19:31 41.09023 -77.16374 38783 ft 501 kts 100°
2026-05-05 19:31 41.07820 -77.07282 38779 ft 499 kts 100°
2026-05-05 19:32 41.06621 -76.98268 38776 ft 497 kts 100°
2026-05-05 19:32 41.05414 -76.89260 38781 ft 496 kts 100°
2026-05-05 19:33 41.04201 -76.80249 38805 ft 494 kts 101°
2026-05-05 19:33 41.02992 -76.71324 38805 ft 493 kts 101°
2026-05-05 19:34 41.01594 -76.62476 38807 ft 492 kts 107°
2026-05-05 19:35 40.98345 -76.49593 38803 ft 491 kts 110°
2026-05-05 19:35 40.96211 -76.41058 38826 ft 490 kts 109°
2026-05-05 19:36 40.94133 -76.32447 38467 ft 495 kts 109°
2026-05-05 19:36 40.93082 -76.28091 37880 ft 494 kts 109°
2026-05-05 19:36 40.92036 -76.23776 37317 ft 492 kts 109°
2026-05-05 19:36 40.90998 -76.19515 36671 ft 493 kts 108°
2026-05-05 19:37 40.89942 -76.15190 36064 ft 493 kts 108°
2026-05-05 19:37 40.88887 -76.10881 35435 ft 492 kts 108°
2026-05-05 19:37 40.87831 -76.06570 34795 ft 493 kts 108°
2026-05-05 19:37 40.86763 -76.02217 34137 ft 503 kts 107°
2026-05-05 19:38 40.85673 -75.97778 33567 ft 509 kts 107°
2026-05-05 19:38 40.84593 -75.93389 33078 ft 508 kts 107°
2026-05-05 19:38 40.83492 -75.88924 32382 ft 507 kts 108°
2026-05-05 19:38 40.82401 -75.84505 31785 ft 505 kts 108°
2026-05-05 19:39 40.81313 -75.80106 31276 ft 500 kts 108°
2026-05-05 19:39 40.80251 -75.75821 30790 ft 495 kts 108°
2026-05-05 19:39 40.79177 -75.71500 30414 ft 487 kts 108°
2026-05-05 19:39 40.78126 -75.67281 29990 ft 482 kts 108°
2026-05-05 19:40 40.77083 -75.63100 29443 ft 477 kts 109°
2026-05-05 19:40 40.76049 -75.58957 28939 ft 472 kts 109°
2026-05-05 19:40 40.75024 -75.54863 28453 ft 466 kts 109°
2026-05-05 19:40 40.74025 -75.50877 27935 ft 462 kts 109°
2026-05-05 19:41 40.73018 -75.46863 27429 ft 458 kts 109°
2026-05-05 19:41 40.72071 -75.42865 26923 ft 455 kts 107°
2026-05-05 19:41 40.71256 -75.38840 26418 ft 452 kts 105°
2026-05-05 19:41 40.70508 -75.34897 25925 ft 448 kts 105°
2026-05-05 19:42 40.69751 -75.30904 25437 ft 445 kts 105°
2026-05-05 19:42 40.68986 -75.26962 24946 ft 442 kts 106°
2026-05-05 19:42 40.68210 -75.23054 24456 ft 439 kts 106°
2026-05-05 19:42 40.67428 -75.19156 23956 ft 438 kts 107°
2026-05-05 19:43 40.66510 -75.15399 23446 ft 433 kts 119°
2026-05-05 19:43 40.64829 -75.12162 22895 ft 422 kts 136°
2026-05-05 19:43 40.62819 -75.09384 22385 ft 417 kts 138°
2026-05-05 19:43 40.60811 -75.06639 21884 ft 414 kts 137°
2026-05-05 19:44 40.58861 -75.03915 21390 ft 411 kts 137°
2026-05-05 19:44 40.56981 -75.01067 20884 ft 412 kts 127°
2026-05-05 19:44 40.55762 -74.97670 20517 ft 410 kts 112°
2026-05-05 19:44 40.54771 -74.94154 20042 ft 407 kts 112°
2026-05-05 19:45 40.53786 -74.90721 19579 ft 405 kts 113°
2026-05-05 19:45 40.52772 -74.87263 19111 ft 403 kts 114°
2026-05-05 19:45 40.51753 -74.83838 18635 ft 401 kts 114°
2026-05-05 19:45 40.50731 -74.80424 18155 ft 400 kts 114°
2026-05-05 19:46 40.49713 -74.77034 17644 ft 398 kts 114°
2026-05-05 19:46 40.48696 -74.73652 17140 ft 395 kts 114°
2026-05-05 19:46 40.47688 -74.70304 16649 ft 393 kts 114°
2026-05-05 19:46 40.46698 -74.67018 16249 ft 389 kts 115°
2026-05-05 19:47 40.45708 -74.63731 15811 ft 386 kts 115°
2026-05-05 19:47 40.44714 -74.60440 15360 ft 384 kts 115°
2026-05-05 19:47 40.43735 -74.57176 14910 ft 384 kts 112°
2026-05-05 19:47 40.43260 -74.53723 14429 ft 389 kts 90°
2026-05-05 19:48 40.43708 -74.50266 13937 ft 389 kts 71°
2026-05-05 19:48 40.44609 -74.46922 13457 ft 388 kts 69°
2026-05-05 19:48 40.45542 -74.43590 12968 ft 386 kts 69°
2026-05-05 19:48 40.46461 -74.40305 12498 ft 385 kts 69°
2026-05-05 19:49 40.47372 -74.37006 12033 ft 383 kts 69°
2026-05-05 19:49 40.47967 -74.34826 11740 ft 381 kts 70°
2026-05-05 19:49 40.49157 -74.30426 11145 ft 380 kts 70°
2026-05-05 19:49 40.50037 -74.27150 10651 ft 380 kts 70°
2026-05-05 19:50 40.50909 -74.23891 10416 ft 373 kts 70°
2026-05-05 19:50 40.51750 -74.20738 10218 ft 364 kts 70°
2026-05-05 19:50 40.52645 -74.17670 10047 ft 355 kts 60°
2026-05-05 19:50 40.54130 -74.15187 9967 ft 336 kts 35°
2026-05-05 19:51 40.55939 -74.13398 9825 ft 324 kts 29°
2026-05-05 19:51 40.57805 -74.11726 9431 ft 325 kts 28°
2026-05-05 19:51 40.59690 -74.10094 9108 ft 323 kts 27°
2026-05-05 19:51 40.61576 -74.08485 8813 ft 321 kts 28°
2026-05-05 19:52 40.63451 -74.06900 8519 ft 318 kts 28°
2026-05-05 19:52 40.65299 -74.05357 8219 ft 318 kts 28°
2026-05-05 19:52 40.67171 -74.03824 7957 ft 314 kts 26°
2026-05-05 19:52 40.69164 -74.02802 7705 ft 303 kts
2026-05-05 19:53 40.71224 -74.02199 7347 ft 303 kts
2026-05-05 19:53 40.73289 -74.01608 6981 ft 304 kts
2026-05-05 19:53 40.75359 -74.01029 6701 ft 303 kts
2026-05-05 19:53 40.77394 -74.00470 6375 ft 303 kts
2026-05-05 19:54 40.79443 -73.99923 6032 ft 301 kts
2026-05-05 19:54 40.81380 -73.98831 5771 ft 304 kts 28°
2026-05-05 19:54 40.83199 -73.97409 5457 ft 304 kts 27°
2026-05-05 19:54 40.85029 -73.96017 5102 ft 306 kts 27°
2026-05-05 19:55 40.86274 -73.95084 5046 ft 303 kts 27°
2026-05-05 19:55 40.88098 -73.93729 4961 ft 302 kts 27°
2026-05-05 19:55 40.89948 -73.92350 4758 ft 307 kts 28°
2026-05-05 19:55 40.92419 -73.90518 4442 ft 305 kts 27°
2026-05-05 19:56 40.93670 -73.89589 4276 ft 304 kts 27°
2026-05-05 19:56 40.95428 -73.88076 3986 ft 303 kts 43°
2026-05-05 19:56 40.96622 -73.85830 3763 ft 293 kts 72°
2026-05-05 19:56 40.96941 -73.83313 3500 ft 273 kts 100°
2026-05-05 19:57 40.96406 -73.81019 3272 ft 251 kts 124°
2026-05-05 19:57 40.95410 -73.79229 3023 ft 236 kts 148°
2026-05-05 19:57 40.93976 -73.78398 2843 ft 220 kts 176°
2026-05-05 19:57 40.92475 -73.78256 2704 ft 217 kts 181°
2026-05-05 19:58 40.90983 -73.78202 2565 ft 210 kts 182°
2026-05-05 19:58 40.89567 -73.78238 2439 ft 195 kts 196°
2026-05-05 19:58 40.88413 -73.78997 2259 ft 180 kts 212°
2026-05-05 19:58 40.87365 -73.79810 1985 ft 165 kts 209°
2026-05-05 19:59 40.86427 -73.80561 1787 ft 150 kts 211°
2026-05-05 19:59 40.85586 -73.81252 1597 ft 140 kts 210°
2026-05-05 19:59 40.84748 -73.81943 1426 ft 140 kts 210°
2026-05-05 19:59 40.83943 -73.82608 1229 ft 137 kts 211°
2026-05-05 20:00 40.83149 -73.83267 1012 ft 135 kts 211°
2026-05-05 20:00 40.82385 -73.83944 879 ft 128 kts 214°
2026-05-05 20:00 40.81666 -73.84660 676 ft 136 kts 208°
2026-05-05 20:00 40.80818 -73.85226 539 ft 138 kts 210°
2026-05-05 20:01 40.80040 -73.85815 308 ft 123 kts 215°
2026-05-05 20:01 40.79318 -73.86435 230 ft 137 kts 210°
2026-05-05 20:01 40.78522 -73.87087 38 ft 129 kts 216°
2026-05-05 20:01 40.77848 -73.87645 21 ft 96 kts 209°
2026-05-05 20:02 40.77480 -73.87948 24 ft 25 kts 212°
2026-05-05 20:02 40.77318 -73.88089 21 ft 27 kts 224°
2026-05-05 20:02 40.77303 -73.88231 20 ft 10 kts 339°
2026-05-05 20:02 40.77315 -73.88235 20 ft 1 kts 352°
2026-05-05 20:03 40.77326 -73.88234 20 ft 2 kts
2026-05-05 20:03 40.77342 -73.88227 19 ft 0 kts 30°
2026-05-05 20:03 40.77343 -73.88225 19 ft 2 kts 41°
2026-05-05 20:03 40.77387 -73.88175 19 ft 12 kts 36°
2026-05-05 20:04 40.77474 -73.88102 18 ft 18 kts 34°
2026-05-05 20:04 40.77536 -73.88055 19 ft 0 kts 23°
2026-05-05 20:07 40.77558 -73.88021 20 ft 14 kts 69°
2026-05-05 20:07 40.77551 -73.87866 23 ft 17 kts 91°
2026-05-05 20:08 40.77544 -73.87766 23 ft 0 kts 96°
2026-05-05 20:08 40.77546 -73.87758 22 ft 3 kts 80°
2026-05-05 20:08 40.77534 -73.87685 19 ft 14 kts 117°
2026-05-05 20:08 40.77474 -73.87560 19 ft 17 kts 124°
2026-05-05 20:09 40.77434 -73.87418 19 ft 16 kts 99°
2026-05-05 20:09 40.77430 -73.87270 19 ft 16 kts 92°
2026-05-05 20:09 40.77401 -73.87134 21 ft 15 kts 98°
2026-05-05 20:09 40.77437 -73.87076 19 ft 8 kts 32°
2026-05-05 20:10 40.77511 -73.87015 19 ft 21 kts 31°
2026-05-05 20:10 40.77591 -73.86950 15 ft 11 kts 35°
2026-05-05 20:10 40.77597 -73.86902 12 ft 4 kts 119°
2026-05-05 20:10 40.77582 -73.86868 14 ft 4 kts 122°
2026-05-05 20:11 40.77567 -73.86836 13 ft 4 kts 122°
2026-05-05 20:11 40.77525 -73.86763 12 ft 21 kts 133°
2026-05-05 20:11 40.77453 -73.86676 13 ft 10 kts 197°
2026-05-05 20:11 40.77429 -73.86749 18 ft 10 kts 301°
2026-05-05 20:12 40.77474 -73.86815 18 ft 7 kts 314°